Weather History for South Lake Tahoe, CA

Change the Weather History Date:

Friday, February 15, 2013

  Actual Average Record
Temperature  
Mean Temperature 36 °F 31 °F  
Max Temperature 53 °F 44 °F 61 °F (1991)
Min Temperature 19 °F 18 °F -6 °F (1990)
Degree Days  
Heating Degree Days 29 34  
Month to date heating degree days 511 522  
Since 1 July heating degree days 4582 4804  
Cooling Degree Days 0 0  
Month to date cooling degree days 0 0  
Year to date cooling degree days 0 0  
Moisture  
Dew Point 21 °F    
Average Humidity 53    
Maximum Humidity 84    
Minimum Humidity 22    
Precipitation  
Precipitation 0.00 in - 2.07 in (1986)
Month to date precipitation 0.04  
Year to date precipitation 0.75  
Sea Level Pressure  
Sea Level Pressure 30.41 in    
Wind  
Wind Speed 3 mph (SSE)    
Max Wind Speed 10 mph    
Max Gust Speed 12 mph    
Visibility 10 miles    
Events      
T = Trace of Precipitation, MM = Missing Value Source: NWS Daily Summary

Daily Weather History Graph

Daily Weather History Graph

Search for Another Location

Airport:

Trip Planner

Search our weather history database for the weather conditions in past years. The results will help you decide how hot, cold, wet, or windy it might be!

Date:

Astronomy

Feb. 15, 2013 Rise Set
Actual Time 6:50 AM PST 5:37 PM PST
Civil Twilight 6:23 AM PST 6:05 PM PST
Nautical Twilight 5:52 AM PST 6:36 PM PST
Astronomical Twilight 5:21 AM PST 7:07 PM PST
Moon 9:33 AM PST (2/15) 11:39 PM PST (2/15)
Length of Visible Light 11h 41m
Length of Day
10h 47m
Waxing Crescent, 31% of the Moon is Illuminated
Feb 15
Waxing Crescent
Feb 17
First Quarter
Feb 25
Full
Mar 4
Last Quarter
Mar 11
New

Hourly Weather History & Observations

Time (PST) Temp. Windchill Dew Point Humidity Pressure Visibility Wind Dir Wind Speed Gust Speed Precip Events Conditions
12:53 AM 25.0 °F 20.7 °F 19.9 °F 81% 30.38 in 10.0 mi SSW 3.5 mph - N/A   Clear
2:53 AM 23.0 °F 17.0 °F 18.0 °F 81% 30.40 in 10.0 mi South 4.6 mph - N/A   Clear
3:53 AM 23.0 °F - 17.1 °F 78% 30.39 in 10.0 mi Calm Calm - N/A   Clear
4:53 AM 21.0 °F 16.2 °F 17.1 °F 85% 30.42 in 10.0 mi SSW 3.5 mph - N/A   Clear
5:53 AM 21.0 °F 16.2 °F 16.0 °F 81% 30.43 in 10.0 mi South 3.5 mph - N/A   Clear
6:53 AM 19.9 °F 13.4 °F 15.1 °F 81% 30.45 in 10.0 mi South 4.6 mph - N/A   Clear
7:53 AM 21.0 °F - 17.1 °F 85% 30.47 in 10.0 mi Calm Calm - N/A   Clear
8:53 AM 28.0 °F - 21.0 °F 75% 30.45 in 10.0 mi Calm Calm - N/A   Clear
9:53 AM 36.0 °F - 24.1 °F 62% 30.43 in 10.0 mi Calm Calm - N/A   Clear
10:53 AM 45.0 °F 41.8 °F 25.0 °F 46% 30.39 in 10.0 mi NNE 5.8 mph - N/A   Clear
11:53 AM 46.9 °F - 23.0 °F 39% 30.38 in 10.0 mi NNE 4.6 mph - N/A   Clear
12:53 PM 46.9 °F - 25.0 °F 42% 30.36 in 10.0 mi NNE 9.2 mph - N/A   Clear
1:53 PM 48.9 °F - 23.0 °F 36% 30.34 in 10.0 mi NNE 9.2 mph - N/A   Clear
2:53 PM 52.0 °F - 18.0 °F 26% 30.33 in 10.0 mi NE 5.8 mph - N/A   Clear
4:53 PM 43.0 °F - 21.9 °F 43% 30.38 in 10.0 mi Calm Calm - N/A   Clear
5:53 PM 37.9 °F - 24.1 °F 57% 30.39 in 10.0 mi Calm Calm - N/A   Clear
6:53 PM 34.0 °F - 21.9 °F 61% 30.43 in 10.0 mi Calm Calm - N/A   Clear
7:53 PM 30.9 °F - 21.0 °F 67% 30.45 in 10.0 mi Calm Calm - N/A   Clear
8:53 PM 30.0 °F 26.5 °F 21.0 °F 69% 30.45 in 10.0 mi South 3.5 mph - N/A   Clear
9:53 PM 28.0 °F - 21.0 °F 75% 30.43 in 10.0 mi Calm Calm - N/A   Clear
10:53 PM 28.0 °F - 21.0 °F 75% 30.39 in 10.0 mi Calm Calm - N/A   Clear
11:53 PM 26.1 °F 21.9 °F 19.9 °F 78% 30.39 in 10.0 mi South 3.5 mph - N/A   Clear